sat.trackr.live / text

‹ back to catalog

UNKNOWN

NORAD 82073

UNKNOWN UNKNOWN UNKNOWN

§ Identity

Operator
Country
Launch date
Launch site
Launch vehicle
Mass (kg)
RCS (m²)

External: N2YO · Heavens-Above

§ Orbital elements

Epoch: 2026-09-17T09:18:58.516992Z

Period
99.99 min
Inclination
97.7229°
Eccentricity
0.0204880
Mean motion
14.40168354 rev/d
Perigee alt
611.7 km
Apogee alt
904.1 km
Semi-major
7,136.1 km
B*
4.4208e-4
RAAN
314.8134°
Arg perigee
155.5032°
Mean anomaly
205.6063°
Rev number
61,521

§ Raw data

UNKNOWN1 82073U          26260.38817728  .00001747  00000+0  44208-3 0  99992 82073  97.7229 314.8134 0204880 155.5032 205.6063 14.40168354615218

JSON: /api/v1/satellites/82073 · /tle

For live sub-satellite position, see the globe view (requires WebGL).

§ Visibility from observer

Set your observer location to see the next 7 days of passes ≥ 10°. The values pass through the URL so the page stays shareable.

No JS? Fill the form by hand. The geolocation button needs JavaScript.